Skip Page Navigation
NASA JPL Caltech
NASA Logo - Jet Propulsion Laboratory + View the NASA Portal
+ Center for Near-Earth Object Studies
JPL Home Earth Solar System Stars & Galaxies Technology
JPL Solar System Dynamics
BODIES ORBITS EPHEMERIDES TOOLS PHYSICAL DATA DISCOVERY FAQ SITE MAP
IMPORTANT: The SSD Announcement email list is now available. Major changes are coming in the near future, including possible hostname and/or URL changes. To be notified of such changes, subscribe to this email list.

Please visit this page for more details.


JPL Small-Body Database Browser
Search: [ help ]  
413876 (2006 UM269)
Classification: Inner Main-belt Asteroid          SPK-ID: 2413876
Ephemeris | Orbit Diagram | Orbital Elements | Mission Design | Physical Parameters | Discovery Circumstances ]

[ show orbit diagram ]
Orbital Elements at Epoch 2458600.5 (2019-Apr-27.0) TDB
Reference: JPL 11 (heliocentric ecliptic J2000)
 Element Value Uncertainty (1-sigma)   Units 
e .09080097530821048 1.9958e-07  
a 1.910786658889165 1.6867e-08 au
q 1.737285366656112 3.7474e-07 au
i 22.02404806215646 1.2453e-05 deg
node 43.31507636167169 2.1998e-05 deg
peri 341.3364536813855 6.4699e-05 deg
M 278.9454889564964 6.7818e-05 deg
tp 2458817.715802426620
(2019-Nov-30.21580243)
0.0001836 TDB
period 964.754309992853
2.64
1.2774e-05
3.497e-08
d
yr
n .373151999707228 4.9408e-09 deg/d
Q 2.084287951122218 1.8398e-08 au
  Orbit Determination Parameters
   # obs. used (total)      91  
   data-arc span      5909 days (16.18 yr)  
   first obs. used      2001-11-21  
   last obs. used      2018-01-25  
   planetary ephem.      DE431  
   SB-pert. ephem.      SB431-N16  
   condition code      0  
   norm. resid. RMS      .52639  
   source      ORB  
   producer      Otto Matic  
   solution date      2018-Feb-06 09:46:11  

Additional Information
 Earth MOID = .749609 au 
 Jupiter MOID = 3.23351 au 
 T_jup = 3.842 
[ show covariance matrix ]

Ephemeris | Orbit Diagram | Orbital Elements | Mission Design | Physical Parameters | Discovery Circumstances ]

Physical Parameter Table
Parameter Symbol Value Units Sigma Reference Notes
absolute magnitude H 17.7   n/a MPO322078  

413876 (2006 UM269)          Discovered 2006-Oct-27 by Mt. Lemmon Survey at Mount Lemmon
Reference: Last Updated: 2014-11-10
Ephemeris | Orbit Diagram | Orbital Elements | Mission Design | Physical Parameters | Discovery Circumstances ]
ABOUT SSD CREDITS/AWARDS PRIVACY/COPYRIGHT GLOSSARY LINKS
FirstGov
(server date/time)  
NASA Home Page
Site Manager:   Ryan S. Park
Webmaster  Alan B. Chamberlin